SCP
0 0 0 0 0 0 0 0 0 0 0 0 0 0 0 0 0 0 0 0 0 0 0 0 -0 -0 -0 -0 -0 -0 -0 -0
0 0 0 0 0 0 0 0 0 0 0 0 0 0 0 0 0 0 0 0 0 0 0 0 0 0 0 0 -0 -0 -0 -0
0 0 0 0 0 0 0 0 0 0 0 0 0 0 0 0 0 0 0 0 1 1 0 0 0 0 0 0 0 -0 -0 -0
0 0 0 0 0 0 0 0 0 0 0 0 0 0 0 0 0 0 0 1 1 1 1 0 0 0 0 0 0 -0 -0 -0
0 0 0 0 0 0 0 0 0 0 0 0 0 0 0 0 0 0 0 1 1 1 1 1 1 0 0 0 0 0 -0 -0
0 0 0 0 0 0 0 0 0 0 0 0 0 0 0 0 0 0 0 0 1 1 1 1 0 1 0 0 0 0 0 -0
0 0 0 0 0 0 0 0 0 0 0 0 0 0 0 0 0 0 0 1 1 1 1 1 1 1 1 0 0 0 0 0
0 0 0 0 0 0 0 0 0 0 0 0 0 0 0 0 0 0 0 1 1 1 2 1 1 1 1 1 0 0 0 0
0 0 0 0 0 0 0 0 0 0 0 0 0 0 0 0 0 0 0 1 1 2 2 1 1 1 1 1 1 1 0 0
0 0 0 0 0 0 0 0 0 0 0 0 0 0 0 0 0 0 0 0 1 2 2 2 2 1 1 1 1 1 1 1
0 0 0 0 0 0 0 0 0 0 0 0 0 0 0 0 0 0 0 1 1 1 2 2 2 2 2 2 2 2 2 2
0 0 0 0 0 0 0 0 0 0 0 0 0 0 0 0 -0 0 0 0 1 0 1 1 2 2 3 3 3 3 3 2
0 0 0 0 0 0 0 0 0 0 0 0 0 0 0 0 0 0 0 1 1 1 1 1 1 1 2 2 3 4 3 3
0 0 0 0 0 0 0 0 0 0 0 0 0 0 0 0 0 0 1 1 1 1 1 1 1 2 2 2 2 3 2 2
0 0 0 0 0 0 0 0 0 0 0 0 0 0 0 0 0 0 0 0 1 1 1 1 2 2 3 2 2 2 2 1
0 0 0 0 0 0 0 0 0 0 0 0 0 0 0 0 0 0 0 0 1 2 2 2 2 3 3 3 3 2 2 2
0 0 0 0 0 0 0 0 0 0 0 0 0 0 0 0 0 0 0 0 0 1 1 2 3 3 3 3 3 3 3 2
0 0 0 0 0 0 0 0 0 0 0 0 0 0 0 0 0 0 0 0 0 0 1 2 3 3 5 4 4 3 3 3
0 0 0 0 0 0 0 0 0 0 0 0 0 0 0 0 0 0 0 0 0 0 1 2 3 4 5 6 6 4 4 3
0 0 0 0 -0 0 0 0 0 0 0 0 0 0 0 0 0 0 0 0 0 0 0 2 4 5 5 5 6 5 5 5
Wind_Speed_500mb
3 2 11 7 11 10 16 11 5 5 5 5 3 3 2 11 22 26 37 45 49 51 50 47 42 40 47 52 51 47 41 36
6 12 4 1 6 9 23 8 12 5 7 3 4 3 3 11 20 21 41 47 48 49 50 48 44 42 48 54 53 49 43 40
5 9 4 4 2 10 12 12 17 21 1 4 14 13 14 17 20 20 41 47 49 48 49 46 42 43 48 53 54 51 46 43
19 20 5 7 6 2 9 14 24 13 15 4 12 18 18 20 19 19 31 42 48 50 50 47 43 42 46 52 54 52 47 44
7 13 10 5 2 5 5 16 8 21 7 8 12 13 23 24 27 27 40 42 47 52 53 49 47 45 46 49 53 52 48 44
9 15 16 3 4 1 8 7 24 13 6 9 15 23 30 28 27 32 42 46 50 54 57 56 52 49 47 48 50 49 45 43
11 12 7 6 4 9 12 13 9 10 20 23 27 24 36 35 32 35 42 46 52 57 61 61 57 54 52 50 50 50 47 46
8 11 8 7 10 12 16 28 12 22 19 27 26 22 39 45 41 39 40 46 52 57 61 63 63 61 59 56 55 55 54 52
12 20 18 18 24 8 9 19 20 26 30 26 20 24 34 45 44 37 37 44 51 57 60 65 69 69 67 66 64 61 58 56
8 9 11 14 10 12 21 26 27 26 28 23 17 26 37 37 44 41 31 37 47 52 59 66 72 73 73 76 72 69 64 59
13 18 16 12 20 14 18 23 30 27 14 8 14 23 33 49 52 48 39 42 49 52 56 60 63 70 75 76 75 71 67 64
14 15 12 15 20 11 10 23 23 14 12 17 12 14 26 36 52 56 48 45 44 42 48 52 53 63 73 75 76 73 71 67
22 20 14 8 26 17 17 11 14 20 19 19 18 19 21 25 35 49 48 45 42 41 46 44 47 53 67 75 79 80 79 67
3 5 5 13 33 20 11 5 9 16 20 24 19 20 28 32 37 42 46 49 45 49 45 46 48 52 62 72 74 76 65 58
11 5 7 7 6 19 12 11 17 15 21 26 30 28 28 39 47 55 61 63 58 56 54 51 51 53 65 71 74 68 66 58
12 3 14 28 28 25 37 28 27 27 26 27 24 24 23 26 33 42 53 66 68 64 67 61 60 60 67 73 72 71 67 70
22 22 13 26 25 27 36 28 30 36 31 30 32 27 25 19 20 27 28 56 75 76 75 75 70 68 74 75 74 73 64 65
22 17 15 26 28 26 25 25 36 39 34 36 36 45 44 41 43 43 35 31 34 70 84 85 80 79 79 79 78 76 69 62
23 23 15 21 34 25 21 16 27 37 44 42 48 51 45 46 48 49 51 46 42 38 48 82 89 86 85 86 79 74 65 61
23 21 27 5 29 35 27 26 30 42 40 44 45 45 46 56 42 46 52 57 55 51 50 49 69 91 90 93 89 84 68 69
Wind_Direction_500mb
55 173 215 143 81 2 342 348 307 147 82 113 91 23 123 163 168 173 183 190 188 187 187 188 191 191 186 182 181 182 180 176
251 237 244 179 80 358 347 52 354 355 108 103 144 111 157 181 179 184 182 189 191 192 191 192 196 196 192 189 189 190 187 180
230 247 244 234 327 10 7 15 335 342 45 146 139 132 118 147 178 191 184 190 193 195 196 197 201 198 194 194 195 194 190 182
226 241 229 280 280 22 16 4 353 17 342 248 178 167 158 147 158 184 192 194 197 197 199 198 202 202 197 193 192 192 190 185
217 264 264 237 259 97 37 332 13 330 284 285 220 216 181 171 176 188 191 196 198 200 200 201 200 201 198 193 190 189 188 189
201 237 267 195 274 23 11 335 326 337 12 338 318 280 195 187 185 195 195 201 202 203 202 200 201 201 200 195 192 191 192 194
214 198 225 189 15 315 317 290 291 264 308 305 314 257 210 192 192 195 200 208 209 208 206 203 203 202 202 201 197 197 197 202
208 211 252 290 303 316 316 305 282 294 298 323 331 243 225 202 198 199 205 213 215 216 213 208 204 204 205 205 204 203 202 204
231 226 252 280 284 260 274 290 286 287 309 316 316 265 236 223 212 210 212 219 219 219 219 215 209 207 208 209 209 209 209 208
233 238 248 257 266 252 231 261 297 305 291 293 299 262 241 238 228 220 228 237 227 227 221 221 217 213 213 213 212 212 212 214
255 276 256 253 252 248 234 268 315 314 297 303 310 273 265 241 234 227 234 238 234 230 229 227 228 225 222 222 219 218 217 218
296 282 279 273 277 179 252 299 293 287 289 297 297 282 285 261 239 242 238 240 235 226 223 225 232 231 233 231 231 228 226 224
264 269 256 233 263 241 266 264 260 285 288 278 288 273 257 265 261 248 234 237 229 224 223 220 229 234 236 236 232 232 231 231
147 292 270 212 270 292 229 199 285 303 304 306 292 292 260 240 236 241 244 240 238 237 229 229 233 233 238 240 238 240 237 231
297 301 245 238 290 311 267 309 288 285 293 300 303 300 300 252 231 227 236 238 238 237 237 235 235 238 242 240 239 238 228 231
270 271 311 291 281 277 286 286 286 293 289 288 295 301 305 292 248 236 235 238 236 236 239 237 238 242 242 240 240 240 230 232
275 278 284 279 283 280 285 289 277 284 278 276 277 284 283 281 272 285 251 237 234 239 242 241 241 241 237 236 238 239 233 224
279 274 207 289 284 283 271 266 267 269 273 268 274 284 287 286 286 282 280 269 254 241 241 240 243 243 240 240 239 240 235 223
266 300 245 276 279 267 263 246 261 256 257 267 275 283 288 293 291 282 275 268 269 261 250 244 245 246 244 239 241 240 229 221
272 293 288 345 287 278 277 260 248 259 260 263 269 280 285 293 294 286 275 261 262 263 260 256 250 245 245 243 238 238 228 228
Wind_Speed_850mb
3 2 11 7 11 10 16 11 5 5 5 5 3 3 2 11 22 26 37 45 49 51 50 47 42 40 47 52 51 47 41 36
6 12 4 1 6 9 23 8 12 5 7 3 4 3 3 11 20 21 41 47 48 49 50 48 44 42 48 54 53 49 43 40
5 9 4 4 2 10 12 12 17 21 1 4 14 13 14 17 20 20 41 47 49 48 49 46 42 43 48 53 54 51 46 43
19 20 5 7 6 2 9 14 24 13 15 4 12 18 18 20 19 19 31 42 48 50 50 47 43 42 46 52 54 52 47 44
7 13 10 5 2 5 5 16 8 21 7 8 12 13 23 24 27 27 40 42 47 52 53 49 47 45 46 49 53 52 48 44
9 15 16 3 4 1 8 7 24 13 6 9 15 23 30 28 27 32 42 46 50 54 57 56 52 49 47 48 50 49 45 43
11 12 7 6 4 9 12 13 9 10 20 23 27 24 36 35 32 35 42 46 52 57 61 61 57 54 52 50 50 50 47 46
8 11 8 7 10 12 16 28 12 22 19 27 26 22 39 45 41 39 40 46 52 57 61 63 63 61 59 56 55 55 54 52
12 20 18 18 24 8 9 19 20 26 30 26 20 24 34 45 44 37 37 44 51 57 60 65 69 69 67 66 64 61 58 56
8 9 11 14 10 12 21 26 27 26 28 23 17 26 37 37 44 41 31 37 47 52 59 66 72 73 73 76 72 69 64 59
13 18 16 12 20 14 18 23 30 27 14 8 14 23 33 49 52 48 39 42 49 52 56 60 63 70 75 76 75 71 67 64
14 15 12 15 20 11 10 23 23 14 12 17 12 14 26 36 52 56 48 45 44 42 48 52 53 63 73 75 76 73 71 67
22 20 14 8 26 17 17 11 14 20 19 19 18 19 21 25 35 49 48 45 42 41 46 44 47 53 67 75 79 80 79 67
3 5 5 13 33 20 11 5 9 16 20 24 19 20 28 32 37 42 46 49 45 49 45 46 48 52 62 72 74 76 65 58
11 5 7 7 6 19 12 11 17 15 21 26 30 28 28 39 47 55 61 63 58 56 54 51 51 53 65 71 74 68 66 58
12 3 14 28 28 25 37 28 27 27 26 27 24 24 23 26 33 42 53 66 68 64 67 61 60 60 67 73 72 71 67 70
22 22 13 26 25 27 36 28 30 36 31 30 32 27 25 19 20 27 28 56 75 76 75 75 70 68 74 75 74 73 64 65
22 17 15 26 28 26 25 25 36 39 34 36 36 45 44 41 43 43 35 31 34 70 84 85 80 79 79 79 78 76 69 62
23 23 15 21 34 25 21 16 27 37 44 42 48 51 45 46 48 49 51 46 42 38 48 82 89 86 85 86 79 74 65 61
23 21 27 5 29 35 27 26 30 42 40 44 45 45 46 56 42 46 52 57 55 51 50 49 69 91 90 93 89 84 68 69
Wind_Direction_850mb
55 173 215 143 81 2 342 348 307 147 82 113 91 23 123 163 168 173 183 190 188 187 187 188 191 191 186 182 181 182 180 176
251 237 244 179 80 358 347 52 354 355 108 103 144 111 157 181 179 184 182 189 191 192 191 192 196 196 192 189 189 190 187 180
230 247 244 234 327 10 7 15 335 342 45 146 139 132 118 147 178 191 184 190 193 195 196 197 201 198 194 194 195 194 190 182
226 241 229 280 280 22 16 4 353 17 342 248 178 167 158 147 158 184 192 194 197 197 199 198 202 202 197 193 192 192 190 185
217 264 264 237 259 97 37 332 13 330 284 285 220 216 181 171 176 188 191 196 198 200 200 201 200 201 198 193 190 189 188 189
201 237 267 195 274 23 11 335 326 337 12 338 318 280 195 187 185 195 195 201 202 203 202 200 201 201 200 195 192 191 192 194
214 198 225 189 15 315 317 290 291 264 308 305 314 257 210 192 192 195 200 208 209 208 206 203 203 202 202 201 197 197 197 202
208 211 252 290 303 316 316 305 282 294 298 323 331 243 225 202 198 199 205 213 215 216 213 208 204 204 205 205 204 203 202 204
231 226 252 280 284 260 274 290 286 287 309 316 316 265 236 223 212 210 212 219 219 219 219 215 209 207 208 209 209 209 209 208
233 238 248 257 266 252 231 261 297 305 291 293 299 262 241 238 228 220 228 237 227 227 221 221 217 213 213 213 212 212 212 214
255 276 256 253 252 248 234 268 315 314 297 303 310 273 265 241 234 227 234 238 234 230 229 227 228 225 222 222 219 218 217 218
296 282 279 273 277 179 252 299 293 287 289 297 297 282 285 261 239 242 238 240 235 226 223 225 232 231 233 231 231 228 226 224
264 269 256 233 263 241 266 264 260 285 288 278 288 273 257 265 261 248 234 237 229 224 223 220 229 234 236 236 232 232 231 231
147 292 270 212 270 292 229 199 285 303 304 306 292 292 260 240 236 241 244 240 238 237 229 229 233 233 238 240 238 240 237 231
297 301 245 238 290 311 267 309 288 285 293 300 303 300 300 252 231 227 236 238 238 237 237 235 235 238 242 240 239 238 228 231
270 271 311 291 281 277 286 286 286 293 289 288 295 301 305 292 248 236 235 238 236 236 239 237 238 242 242 240 240 240 230 232
275 278 284 279 283 280 285 289 277 284 278 276 277 284 283 281 272 285 251 237 234 239 242 241 241 241 237 236 238 239 233 224
279 274 207 289 284 283 271 266 267 269 273 268 274 284 287 286 286 282 280 269 254 241 241 240 243 243 240 240 239 240 235 223
266 300 245 276 279 267 263 246 261 256 257 267 275 283 288 293 291 282 275 268 269 261 250 244 245 246 244 239 241 240 229 221
272 293 288 345 287 278 277 260 248 259 260 263 269 280 285 293 294 286 275 261 262 263 260 256 250 245 245 243 238 238 228 228